Forecast Directory
U.S. Alerts
El Dorado Weather Logo
U.S. Radar Loop Conditions Map

U.S. Color Satellite North America Color Infrared Animated Satellite Loop

Interactive Wx Map Live U.S. Google Map Radar Thumbnail Image

US Precipitation 1 day, 24 hour precipitation map

US Temperatures US Conditions Map

US Climate Data US Conditions Map


NOAA NWS Hourly Roundups by Site
Regional Weather Roundup for Sacramento, CA
Select Site:  

000
ASUS46 KSTO 222315
RWRCA

NORTHERN AND CENTRAL CA REGIONAL WEATHER ROUNDUP
NATIONAL WEATHER SERVICE SACRAMENTO CA
400 PM PDT SUN MAY 22 2022

NOTE: FAIR INDICATES FEW OR NO CLOUDS BELOW 12,000 FEET WITH NO
SIGNIFICANT WEATHER AND/OR OBSTRUCTIONS TO VISIBILITY.

CAZ001-003-230000-
NORTHWEST AREA

CITY           SKY/WX    TMP DP  RH WIND       PRES   REMARKS
CRESCENT CITY  PTSUNNY   54  48  80 N7G18     30.23S
UKIAH          SUNNY     82  38  20 NW12      30.01F
$$

CAZ006-505>513-230000-
BAY AREA

CITY           SKY/WX    TMP DP  RH WIND       PRES   REMARKS
SANTA ROSA     SUNNY     85  42  22 SW9       29.96F
SAN RAFAEL     N/A       86  MM  MM MISG
NAPA           SUNNY     81  54  39 S15       29.97F
CONCORD        SUNNY     86  42  21 W13       29.95F
OAKLAND CITY   N/A       72  MM  MM MISG
OAKLAND        MOSUNNY   67  48  50 W16       30.02S
SAN FRAN CITY  N/A       60  MM  61 MISG
SAN FRAN ARPT  MOSUNNY   63  46  54 W28G37    30.02S
LIVERMORE      SUNNY     84  42  22 W10       29.96F
HAYWARD        SUNNY     68  51  54 NW15      30.00F
REDWOOD CITY   N/A       80  MM  25 MISG
MOFFETT ARPT   SUNNY     72  54  53 N16       29.98F
SAN JOSE ARPT  MOSUNNY   81  40  23 NW14      29.97F
$$
CAZ034-037-514>518-230000-
CENTRAL COAST

CITY           SKY/WX    TMP DP  RH WIND       PRES   REMARKS
WATSONVILLE    SUNNY     65  51  60 S10       30.03F
SALINAS        SUNNY     67  47  48 NW14      30.03F
MONTEREY       SUNNY     62  47  57 NW13      30.06R
SAN LUIS OBISP SUNNY     65  49  56 NW18      29.99S
SANTA MARIA    SUNNY     60  48  64 NW15      30.01S
HALF MOON BAY  FAIR      55  52  88 NW16      30.08S FOG
$$
CAZ015-016-230000-
NORTHERN SACRAMENTO VALLEY

CITY           SKY/WX    TMP DP  RH WIND       PRES   REMARKS
REDDING        MOSUNNY   89  26  10 N8        29.94F
RED BLUFF      SUNNY     91  16   6 N15G22    29.94F
OROVILLE       SUNNY     88  20   8 CALM      29.96S
$$
CAZ016>018-230000-
SOUTHERN SACRAMENTO VALLEY

CITY           SKY/WX    TMP DP  RH WIND       PRES   REMARKS
AUBURN         SUNNY     81  32  17 NW7G14    30.00S
BEALE AFB      HAZE      87  35  16 CALM      29.93S VSB 3/8
LINCOLN        FAIR      88  32  13 MISG      29.93F
MARYSVILLE     SUNNY     90  23   9 N8        29.94F
SAC INTL ARPT  MOSUNNY   88  31  13 W5        29.93F
MATHER AIRPORT MOSUNNY   88  28  11 VRB6G14   29.92F
DOWNTOWN SAC   N/A       89  MM  MM MISG
SAC EXEC ARPT  SUNNY     92  33  12 VRB7      29.93F
VACAVILLE      SUNNY     90  46  21 SW8       29.95F
TRAVIS AFB     SUNNY     89  43  19 S12       29.93F
$$
CAZ019>021-230000-
SAN JOAQUIN VALLEY

CITY           SKY/WX    TMP DP  RH WIND       PRES   REMARKS
STOCKTON       SUNNY     90  39  16 NW7G18    29.93F
MODESTO        SUNNY     88  37  16 N12G22    29.92F
MERCED         SUNNY     90  37  15 NW13      29.91F
LEMOORE        MOSUNNY   91  37  15 NW12      29.91F
FRESNO         MOSUNNY   91  35  13 W12G18    29.91F
HANFORD        SUNNY     91  36  14 N13       29.92F
PORTERVILLE    SUNNY     90  35  14 MISG      29.92F
BAKERSFIELD    SUNNY     88  33  14 NW9       29.91F
$$
CAZ011-012-071-230000-
NORTHERN MOUNTAINS

CITY           SKY/WX    TMP DP  RH WIND       PRES   REMARKS
YREKA          MOSUNNY   76  28  17 N9        30.12F
MOUNT SHASTA   PTSUNNY   71  18  13 VRB5      30.11F
$$
CAZ011-012-071-230000-
SIERRA NEVADA MTNS

CITY           SKY/WX    TMP DP  RH WIND       PRES   REMARKS
BLUE CANYON    SUNNY     66  30  26 W8        30.16S
TRUCKEE        SUNNY     68  25  19 W9G17     30.14F
TAHOE VLY ARPT SUNNY     66  21  18 SW9       30.14F
MAMMOTH LAKES  FAIR      72  23  16 W20G26    30.14R
$$


 

View Past Reports for Sacramento, CA.

Products Courtesy of NOAA-NWS
NWS Information Parsing Script by Ken True at Saratoga Weather - Script by SE Lincoln Weather.



Contact Us | Mobile
Never base any life decisions on weather information from this site or anywhere over the Internet.
Site is dedicated to our Lord & Savior Jesus Christ | Random Quotes of Jesus

Copyright © 2022 El Dorado Weather, Inc. | Site Designed By:  El Dorado Weather